Location: *
(46.3500°N, 10.9000°E)
Time: 10:53:28
(UTC+00:00)

Vanguard 2 - Pass Details

Date: 07 December 2021
Orbit: 553 x 2936 km, 32.9° (Epoch: 19 January)

Event Time Altitude Azimuth Distance (km) Brightness Sun altitude
Rises 17:02:03 0° 251° (WSW) 3,783 13.0 -15.2°
Reaches altitude 10° 17:06:39 10° 222° (SW) 3,307 11.7 -16.0°
Maximum altitude 17:09:35 12° 201° (SSW) 3,445 11.3 -16.5°
Drops below altitude 10° 17:12:58 10° 181° (S) 3,952 11.3 -17.0°
Sets 17:20:08 0° 156° (SSE) 5,607 11.8 -18.2°
